Location: Central Falls
(41.8900°N, 71.3929°W)
Time: 02:59:20
(UTC+00:00)

Tiros 1 - Pass Details

Date: 14 December 2023
Orbit: 625 x 658 km, 48.4° (Epoch: 01 March)

Event Time Altitude Azimuth Distance (km) Brightness Sun altitude
Rises 04:36:00 0° 210° (SSW) 2,935 - -71.3°
Reaches altitude 10° 04:38:31 10° 199° (SSW) 2,035 - -71.3°
Maximum altitude 04:42:37 30° 138° (SE) 1,150 - -71.3°
Drops below altitude 10° 04:46:46 10° 77° (ENE) 2,062 - -71.2°
Sets 04:49:20 0° 67° (ENE) 2,981 - -71.2°
